Location: La Pernelle
(49.6188°N, 1.2999°W)
Time: 17:46:38
(UTC+00:00)

SL-16 R/B - Pass Details

Date: 29 October 2021
Orbit: 842 x 846 km, 71.0° (Epoch: 28 November)

Event Time Altitude Azimuth Distance (km) Brightness Sun altitude
Rises 20:11:23 0° 279° (W) 3,406 6.4 -33.2°
Reaches altitude 10° 20:15:23 10° 306° (NW) 2,475 5.4 -33.8°
Maximum altitude 20:17:56 13° 333° (NNW) 2,267 4.9 -34.2°
Drops below altitude 10° 20:20:30 10° 0° (N) 2,479 4.8 -34.6°
Enters shadow 20:21:32 - 9° (N) 2,669 4.9 -34.7°
